COSMOS 2364 (GLONASS)

Satellite information

Favourite Embed

Satellite Type and Status

PAYLOADIN ORBIT

Key statistics

Satellite COSMOS 2364 (GLONASS) at a glance.

Uptime

9798

Days in orbit

Revolutions

≈ 2.1

Per day

Orbit

MEO

Medium Earth Orbit

Inclination

64.2

Latest

Satellite identification and parameters

Extended collection of information and parameters for COSMOS 2364 (GLONASS).

Object identification

Identified? True

Debris? False

Object name: COSMOS 2364 (GLONASS)

International designator: 1998-077A

Object number (NORAD): 25593

Object ID (CCSDS): 25593

Country: COMMONWEALTH OF INDEPENDENT STATES (CIS)

Current information (Y/N): Y

RCS size: LARGE

Orbital parameters

Period: 675.731 minutes

Inclination: 64.176 deg

SMA: 25507.969 km

Apoapsis: 19208.108 km

Periapsis: 19051.56 km

RAAN: 68.4395 deg

Eccentricy: 0.0030686

Argument of periapsis: 54.346 deg

Mean anomaly: 307.9122 deg

Mean motion: 2.13102695 rev/day

Mean motion (dot): -0.00000012 rev/day2

B* drag term: 0.0 1/REarth

Two-line elements (TLE)

Creation date: Oct. 24, 2025, 9:16 p.m.

Reference frame: TEME

Reference center: EARTH

Epoch: Oct. 24, 2025, 6:03 a.m. UTC

TLE line 0: 0 COSMOS 2364 (GLONASS)

TLE line 1: 1 25593U 98077A 25297.25251013 -.00000012 00000-0 00000+0 0 9992

TLE line 2: 2 25593 64.1760 68.4395 0030686 54.3460 307.9122 2.13102695208632

Live tracking on map

Real-time ground track for satellite COSMOS 2364 (GLONASS).

In-orbit conjunctions

There are no conjunctions computed for COSMOS 2364 (GLONASS), at the moment. Check back to stay up to date, as we update our databases every day.

Go to all conjunctions

Associated space launch

GLONASS navigation satellites

COSMOS 2364 (GLONASS) was lifted into orbit during the mission ‘Proton | Uragan 72 to 74’, on board a Proton space rocket.

The launch took place on Dec. 30, 1998, 6:35 p.m. from 200/39 (200L).

For more information about the launch, click the button.

Launch to space Proton | Uragan 72 to 74
Proton | Uragan 72 to 74

Agency: N/A

Status: Launch Successful

Launch date: Dec. 30, 1998, 6:35 p.m. UTC

Rocket: Proton

Launch pad: 200/39 (200L)

Location: Baikonur Cosmodrome, Republic of Kazakhstan

...

Latest news about this satellite

There are no fresh news available about this satellite. Check back as we update our databases every day.


Newsletter sign-up

Weekly statistics, charts and insights to help you stay on top of the space industry.